TimeEST,TemperatureF,Dew PointF,Humidity,Sea Level PressureIn,VisibilityMPH,Wind Direction,Wind SpeedMPH,Gust SpeedMPH,PrecipitationIn,Events,Conditions,WindDirDegrees,DateUTC
12:58 AM,17.2,4.6,58,30.37,10.0,North,5.8,-,N/A,,Overcast,10,2014-01-02 05:58:00
1:31 AM,17.6,5.0,58,30.35,10.0,North,8.1,-,N/A,Snow,Light Snow,10,2014-01-02 06:31:00
1:58 AM,16.7,5.0,60,30.37,4.0,NNE,6.9,-,0.00,Snow,Light Snow,20,2014-01-02 06:58:00
2:15 AM,15.8,6.8,68,30.36,2.0,NNE,6.9,-,N/A,Snow,Light Snow,20,2014-01-02 07:15:00
2:58 AM,15.3,9.1,77,30.38,1.5,NNE,8.1,-,0.00,Snow,Light Snow,20,2014-01-02 07:58:00
3:28 AM,15.8,10.4,79,30.35,1.2,NNE,6.9,-,N/A,Snow,Light Snow,20,2014-01-02 08:28:00
3:43 AM,14.0,10.4,86,30.35,1.0,NNE,8.1,-,N/A,Snow,Light Snow,20,2014-01-02 08:43:00
3:58 AM,14.5,10.4,84,30.36,0.8,NE,6.9,-,0.00,Snow,Light Snow,40,2014-01-02 08:58:00
4:28 AM,14.0,10.4,86,30.34,1.0,North,4.6,-,N/A,Snow,Light Snow,10,2014-01-02 09:28:00
4:58 AM,14.4,10.8,86,30.36,1.0,North,8.1,-,0.01,Snow,Light Snow,10,2014-01-02 09:58:00
5:22 AM,14.0,10.4,86,30.34,1.2,NNE,5.8,-,N/A,Snow,Light Snow,20,2014-01-02 10:22:00
5:49 AM,14.0,10.4,86,30.34,1.0,Variable,4.6,-,N/A,Snow,Light Snow,0,2014-01-02 10:49:00
5:58 AM,12.9,9.3,86,30.36,1.0,Variable,5.8,-,0.01,Snow,Light Snow,0,2014-01-02 10:58:00
6:58 AM,9.9,5.4,82,30.36,1.0,NE,9.2,-,0.01,Snow,Light Snow,40,2014-01-02 11:58:00
7:58 AM,7.5,2.3,79,30.36,1.0,NNE,12.7,-,0.01,Snow,Light Snow,20,2014-01-02 12:58:00
8:13 AM,6.8,1.4,79,30.34,2.0,NNE,12.7,-,N/A,Snow,Light Snow,30,2014-01-02 13:13:00
8:28 AM,6.8,1.4,79,30.34,1.2,NNE,12.7,19.6,N/A,Snow,Light Snow,20,2014-01-02 13:28:00
8:58 AM,6.6,1.0,78,30.36,1.2,NNE,11.5,-,0.01,Snow,Light Snow,20,2014-01-02 13:58:00
9:41 AM,6.8,-0.4,72,30.33,1.0,NNE,15.0,21.9,N/A,Snow,Light Snow,20,2014-01-02 14:41:00
9:58 AM,6.1,0.3,77,30.35,1.0,NNE,12.7,-,0.01,Snow,Light Snow,20,2014-01-02 14:58:00
10:58 AM,5.9,-0.0,77,30.31,0.5,NNE,12.7,-,0.01,Fog-Snow,Light Snow,20,2014-01-02 15:58:00
11:43 AM,5.0,-0.4,78,30.25,1.5,NNE,13.8,-,N/A,Snow,Light Snow,30,2014-01-02 16:43:00
11:58 AM,5.2,-1.3,75,30.25,1.1,NNE,16.1,24.2,0.01,Snow,Light Snow,20,2014-01-02 16:58:00
12:28 PM,5.0,-2.2,72,30.21,2.0,NNE,15.0,21.9,N/A,Snow,Light Snow,20,2014-01-02 17:28:00
12:58 PM,4.5,-2.2,74,30.21,1.2,NNE,17.3,19.6,0.00,Snow,Light Snow,20,2014-01-02 17:58:00
1:58 PM,3.6,-2.9,74,30.19,1.0,NNE,17.3,23.0,0.00,Snow,Light Snow,20,2014-01-02 18:58:00
2:58 PM,3.4,-2.9,75,30.17,1.1,NNE,18.4,24.2,0.00,Snow,Light Snow,20,2014-01-02 19:58:00
3:43 PM,3.2,-4.0,72,30.12,2.0,NNE,16.1,-,N/A,Snow,Light Snow,20,2014-01-02 20:43:00
3:58 PM,2.7,-3.8,74,30.13,1.2,NNE,17.3,26.5,0.00,Snow,Light Snow,20,2014-01-02 20:58:00
4:58 PM,1.0,-5.4,74,30.12,1.0,North,16.1,28.8,0.01,Snow,Light Snow,10,2014-01-02 21:58:00
5:28 PM,1.4,-5.8,72,30.10,2.5,North,16.1,21.9,N/A,Snow,Light Snow,10,2014-01-02 22:28:00
5:58 PM,-0.2,-6.5,75,30.11,1.0,North,20.7,25.3,0.01,Snow,Light Snow,10,2014-01-02 22:58:00
6:26 PM,-0.4,-5.8,78,30.09,0.4,North,17.3,23.0,N/A,Snow,Snow,10,2014-01-02 23:26:00
6:58 PM,-1.3,-7.1,77,30.10,0.6,NNE,18.4,25.3,0.01,Snow,Light Snow,20,2014-01-02 23:58:00
7:13 PM,-2.2,-7.6,78,30.07,0.8,NNE,17.3,26.5,N/A,Snow,Light Snow,20,2014-01-03 00:13:00
7:28 PM,-2.2,-7.6,78,30.06,0.8,NNE,16.1,21.9,N/A,Snow,Light Snow,30,2014-01-03 00:28:00
7:58 PM,-1.8,-8.1,75,30.06,0.6,NNE,17.3,27.6,0.00,Snow,Light Snow,20,2014-01-03 00:58:00
8:58 PM,-2.2,-8.1,76,30.03,0.5,North,18.4,23.0,0.01,Snow,Snow,10,2014-01-03 01:58:00
9:21 PM,-2.2,-9.4,71,30.01,0.4,North,15.0,24.2,N/A,Snow,Snow,10,2014-01-03 02:21:00
9:58 PM,-2.4,-8.5,75,30.00,0.5,NNE,15.0,24.2,0.01,Snow,Snow,20,2014-01-03 02:58:00
10:15 PM,-2.2,-9.4,71,29.96,0.5,NNE,17.3,27.6,N/A,Snow,Snow,20,2014-01-03 03:15:00
10:58 PM,-2.6,-8.7,75,29.97,0.6,North,16.1,23.0,0.01,Snow,Light Snow,10,2014-01-03 03:58:00
11:28 PM,-2.2,-9.4,71,29.93,0.8,North,17.3,24.2,N/A,Snow,Light Snow,10,2014-01-03 04:28:00
11:58 PM,-2.2,-8.5,75,29.95,0.8,NNE,16.1,23.0,0.00,Snow,Light Snow,20,2014-01-03 04:58:00